{"data":{"norad_id":28361,"epoch":"2026-05-24T08:45:53.115840Z","epoch_age_seconds":130172,"freshness":"FRESH","line1":"1 28361U 04023A   26144.36519810 -.00000009  00000+0  00000+0 0  9997","line2":"2 28361  54.8487  87.6732 0160270 301.2714 171.8878  2.00555817160566","mean_motion":2.00555817,"eccentricity":0.016027,"inclination_deg":54.8487,"raan_deg":87.6732,"arg_perigee_deg":301.2714,"mean_anomaly_deg":171.8878,"bstar":0,"rev_number":16056,"period_min":718.00460417461,"perigee_km":19757.204607469,"apogee_km":20608.592033634,"semimajor_km":26561.035320551,"source":"CELESTRAK","updated_at":"2026-05-25T13:37:55.058413Z"}}